Location: Caltech
(34.1382°N, 118.1253°W)
Time: 05:53:08
(UTC-08:00)

Cosmos 2251 Rocket - Visible Passes

Search period start: 28 February 2015 00:00
Search period end: 10 March 2015 01:00
Orbit: 766 x 792 km, 74.0° (Epoch: 26 February)

Date Brightness Start Highest point End Pass type
(mag) Time Alt. Az. Time Alt. Az. Time Alt. Az.
28 Feb 3.9 18:19:20 10° N 18:24:17 41° ENE 18:29:13 10° SE visible
28 Feb 6.1 20:02:39 10° NW 20:06:18 19° W 20:09:43 10° SW visible
01 Mar 5.3 19:28:07 10° NW 19:32:43 31° W 19:37:14 10° SSW visible
02 Mar 4.3 18:54:01 10° NNW 18:59:06 53° WSW 19:04:09 10° S visible
03 Mar 3.5 18:20:11 10° NNW 18:25:27 89° SW 18:30:41 10° SSE visible
04 Mar 6.6 19:30:51 10° WNW 19:33:35 14° W 19:36:01 10° SW visible
05 Mar 6.0 18:55:51 10° NW 19:00:01 24° W 19:04:03 10° SSW visible
06 Mar 5.1 18:21:34 10° NNW 18:26:27 40° WSW 18:31:15 10° S visible
09 Mar 6.6 19:23:46 10° NW 19:27:20 18° W 19:30:39 10° SW visible
